Hourly Weather Roundup
Issued by NWS Central Illinois

Home | Current Version | Previous Version | Text Only | Print | Product List | Glossary On
Versions: 1 2 3 4 5 6 7 8 9 10 11 12 13 14 15 16 17 18 19 20 21 22 23 24 25 26 27 28 29 30 31 32 33 34 35 36 37 38 39 40 41 42 43 44 45 46 47 48 49 50
143
NZUS43 KILX 291810
HWRILX

AREA WEATHER ROUNDUP
NATIONAL WEATHER SERVICE, LINCOLN IL
100 PM CDT FRI APR 29 2016


CITY           SKY/WX    TMP DP  RH WIND       PRES   REMARKS
BLOOMINGTON    CLOUDY    54  47  77 NE7       30.09F
6HR MIN TEMP:  48; 6HR MAX TEMP:  54;

CHAMPAIGN      CLOUDY    58  48  69 N10       30.07F
6HR MIN TEMP:  48; 6HR MAX TEMP:  58;

DANVILLE       CLOUDY    53  47  79 N5        30.06R HAZE
6HR MIN TEMP:  46; 6HR MAX TEMP:  53;

DECATUR        CLOUDY    57  48  72 NE6       30.07F
6HR MIN TEMP:  53; 6HR MAX TEMP:  57;

EFFINGHAM      CLOUDY    63  53  69 E3        30.06S
FLORA          CLOUDY    65  52  62 S5        30.05F
6HR MIN TEMP:  53; 6HR MAX TEMP:  65;

GALESBURG      CLOUDY    49  43  80 NE6       30.09F
JACKSONVILLE   CLOUDY    56  48  75 E7        30.08R
6HR MIN TEMP:  49; 6HR MAX TEMP:  56;

LACON          CLOUDY    49  42  76 NE6       30.09F
6HR MIN TEMP:  45; 6HR MAX TEMP:  49;

LAWRENCEVILLE  CLOUDY    66  52  60 NE6       30.04F
6HR MIN TEMP:  54; 6HR MAX TEMP:  66;

LITCHFIELD     CLOUDY    59  50  70 N5        30.06F
$$


CITY           SKY/WX    TMP DP  RH WIND       PRES   REMARKS
LINCOLN        CLOUDY    54  48  79 NE9       30.07F
6HR MIN TEMP:  51; 6HR MAX TEMP:  54;

MACOMB         CLOUDY    51  46  83 NE8       30.11S
MATTOON        PTSUNNY   59  50  72 NE8       30.05S
MT CARMEL AP   NOT AVBL
OLNEY-NOBLE AP CLOUDY    63  50  63 E5        30.05F
PARIS          CLOUDY    58  50  75 CALM      30.07F
6HR MIN TEMP:  49; 6HR MAX TEMP:  58;

PEORIA         CLOUDY    54  44  69 NE7       30.08F
6HR MIN TEMP:  48; 6HR MAX TEMP:  54;

PONTIAC        CLOUDY    51  46  83 N6        30.11F
RANTOUL        CLOUDY    55  47  75 NE3       30.08S
6HR MIN TEMP:  51; 6HR MAX TEMP:  55;

ROBINSON       CLOUDY    64  51  64 E3        30.05F
6HR MIN TEMP:  47; 6HR MAX TEMP:  64;

SPRINGFIELD    CLOUDY    56  48  74 NE7       30.08R
6HR MIN TEMP:  50; 6HR MAX TEMP:  57;

TAYLORVILLE    CLOUDY    57  50  77 NE6       30.07R
$$

...REGIONAL REPORTS...


CITY           SKY/WX    TMP DP  RH WIND       PRES   REMARKS
CHICAGO O`HARE CLOUDY    46  38  73 NE9       30.11R
KANKAKEE       CLOUDY    49  43  78 CALM      30.11F
MOLINE         CLOUDY    52  41  66 MISG      30.10F
MOUNT STERLING CLOUDY    52  46  80 NE3       30.08S
MOUNT VERNON   CLOUDY    64  52  63 SE3       30.06F
PITTSFIELD     CLOUDY    55  50  83 NE8       30.08F
QUINCY         CLOUDY    52  47  83 NE9       30.08S
ROCKFORD       CLOUDY    47  38  71 E3        30.14R
$$


CITY           SKY/WX    TMP DP  RH WIND       PRES   REMARKS
BURLINGTON     CLOUDY    50  44  80 NE8       30.09F
CEDAR RAPIDS   CLOUDY    47  42  83 E7        30.10F
DES MOINES     CLOUDY    50  41  71 NE9       30.08F
KIRKSVILLE     CLOUDY    53  45  74 E10       30.07F
OTTUMWA        CLOUDY    48  42  80 E7        30.09S
ST LOUIS       CLOUDY    63  48  59 E9        30.04F
$$


CITY           SKY/WX    TMP DP  RH WIND       PRES   REMARKS
TERRE HAUTE    CLOUDY    63  48  58 VRB5      30.04F
EVANSVILLE     CLOUDY    65  49  56 CALM      30.05F
INDIANAPOLIS   CLOUDY    61  46  57 NW7       30.05S
LAFAYETTE      CLOUDY    55  47  74 VRB3      30.07F
MADISON        PTSUNNY   50  39  66 NE12      30.10F
MILWAUKEE      PTSUNNY   45  37  73 N16       30.10F
$$






USA.gov is the U.S. government's official web portal to all federal, state and local government web resources and services.